Time,TemperatureF,DewpointF,PressureIn,WindDirection,WindDirectionDegrees,WindSpeedMPH,WindSpeedGustMPH,Humidity,HourlyPrecipIn,Conditions,Clouds,dailyrainin,SoftwareType,DateUTC
2013-01-24 00:00:00,45.7,41.1,30.08,NNE,25,0.0,0.0,84,0.00,,SKC,0.00,VWS V13.01,2013-01-24 08:00:00,
2013-01-24 00:07:00,45.9,41.3,30.08,NNE,25,0.0,0.0,84,0.00,,SKC,0.00,VWS V13.01,2013-01-24 08:07:00,
2013-01-24 00:13:00,45.7,40.5,30.08,NNE,25,0.0,0.0,82,0.00,,SKC,0.00,VWS V13.01,2013-01-24 08:13:00,
2013-01-24 00:19:00,45.5,40.3,30.05,NNE,25,0.0,0.0,82,0.00,,SKC,0.00,VWS V13.01,2013-01-24 08:19:00,
2013-01-24 00:25:00,45.5,41.0,30.05,NNE,25,0.0,0.0,84,0.00,,SKC,0.00,VWS V13.01,2013-01-24 08:25:00,
2013-01-24 00:31:00,45.5,40.3,30.05,NNE,25,0.0,0.0,82,0.00,,SKC,0.00,VWS V13.01,2013-01-24 08:31:00,
2013-01-24 00:37:00,45.5,41.0,30.05,NNE,25,0.0,0.0,84,0.00,,SKC,0.00,VWS V13.01,2013-01-24 08:37:00,
2013-01-24 00:43:00,45.5,41.0,30.05,NNE,25,0.0,0.0,84,0.00,,SKC,0.00,VWS V13.01,2013-01-24 08:43:00,
2013-01-24 00:49:00,45.5,41.0,30.05,NNE,24,0.0,0.0,84,0.00,,SKC,0.00,VWS V13.01,2013-01-24 08:49:00,
2013-01-24 00:55:00,45.5,41.0,30.05,NNE,25,0.0,0.0,84,0.00,,SKC,0.00,VWS V13.01,2013-01-24 08:55:00,
2013-01-24 01:01:00,45.7,41.1,30.05,NNE,25,0.0,0.0,84,0.00,,SKC,0.00,VWS V13.01,2013-01-24 09:01:00,
2013-01-24 01:07:00,45.7,41.1,30.05,NNE,25,0.0,0.0,84,0.00,,SKC,0.00,VWS V13.01,2013-01-24 09:07:00,
2013-01-24 01:13:00,45.9,41.3,30.05,NNE,25,0.0,0.0,84,0.00,,SKC,0.00,VWS V13.01,2013-01-24 09:13:00,
2013-01-24 01:19:00,45.9,41.3,30.05,NNE,25,0.0,0.0,84,0.00,,SKC,0.00,VWS V13.01,2013-01-24 09:19:00,
2013-01-24 01:25:00,45.7,41.1,30.05,NNE,25,0.0,0.0,84,0.00,,SKC,0.00,VWS V13.01,2013-01-24 09:25:00,
2013-01-24 01:32:00,45.7,41.1,30.05,NNE,25,0.0,0.0,84,0.00,,SKC,0.00,VWS V13.01,2013-01-24 09:32:00,
2013-01-24 01:38:00,45.7,41.1,30.05,NNE,25,0.0,0.0,84,0.00,,SKC,0.00,VWS V13.01,2013-01-24 09:38:00,
2013-01-24 01:44:00,45.7,41.1,30.05,NNE,25,0.0,0.0,84,0.00,,SKC,0.00,VWS V13.01,2013-01-24 09:44:00,
2013-01-24 01:50:00,45.7,41.1,30.05,NNE,24,0.0,0.0,84,0.00,,SKC,0.00,VWS V13.01,2013-01-24 09:50:00,
2013-01-24 01:56:00,45.7,41.1,30.05,NNE,25,0.0,0.0,84,0.00,,SKC,0.00,VWS V13.01,2013-01-24 09:56:00,
2013-01-24 02:02:00,45.5,41.0,30.05,NNE,25,0.0,0.0,84,0.00,,SKC,0.00,VWS V13.01,2013-01-24 10:02:00,
2013-01-24 02:08:00,45.7,41.1,30.05,NNE,25,0.0,0.0,84,0.00,,SKC,0.00,VWS V13.01,2013-01-24 10:08:00,
2013-01-24 02:14:00,45.9,42.0,30.05,NNE,24,0.0,0.0,86,0.00,,SKC,0.00,VWS V13.01,2013-01-24 10:14:00,
2013-01-24 02:20:00,45.9,42.0,30.05,NNE,25,0.0,0.0,86,0.00,,SKC,0.00,VWS V13.01,2013-01-24 10:20:00,
2013-01-24 02:26:00,45.9,42.0,30.05,NNE,25,0.0,0.0,86,0.00,,SKC,0.00,VWS V13.01,2013-01-24 10:26:00,
2013-01-24 02:33:00,46.0,42.1,30.05,NNE,26,0.0,0.0,86,0.00,,SKC,0.00,VWS V13.01,2013-01-24 10:33:00,
2013-01-24 02:39:00,46.0,42.1,30.05,NNE,25,0.0,0.0,86,0.00,,SKC,0.00,VWS V13.01,2013-01-24 10:39:00,
2013-01-24 02:45:00,46.0,42.1,30.05,NNE,25,0.0,0.0,86,0.00,,SKC,0.00,VWS V13.01,2013-01-24 10:45:00,
2013-01-24 02:51:00,46.0,42.1,30.05,NNE,25,0.0,0.0,86,0.00,,SKC,0.00,VWS V13.01,2013-01-24 10:51:00,
2013-01-24 02:57:00,46.2,42.9,30.05,NNE,25,0.0,0.0,88,0.00,,SKC,0.00,VWS V13.01,2013-01-24 10:57:00,
2013-01-24 03:03:00,46.0,42.1,30.05,NNE,25,0.0,0.0,86,0.00,,SKC,0.00,VWS V13.01,2013-01-24 11:03:00,
2013-01-24 03:09:00,46.0,42.1,30.05,NNE,25,0.0,0.0,86,0.00,,SKC,0.00,VWS V13.01,2013-01-24 11:09:00,
2013-01-24 03:15:00,45.9,42.0,30.05,NNE,25,0.0,0.0,86,0.00,,SKC,0.00,VWS V13.01,2013-01-24 11:15:00,
2013-01-24 03:21:00,45.9,42.0,30.05,NNE,25,0.0,0.0,86,0.00,,SKC,0.00,VWS V13.01,2013-01-24 11:21:00,
2013-01-24 03:27:00,45.9,42.0,30.05,NNE,25,0.0,0.0,86,0.00,,SKC,0.00,VWS V13.01,2013-01-24 11:27:00,
2013-01-24 03:33:00,45.9,42.0,30.05,NNE,25,0.0,0.0,86,0.00,,SKC,0.00,VWS V13.01,2013-01-24 11:33:00,
2013-01-24 03:40:00,45.9,42.0,30.05,NNE,25,0.0,0.0,86,0.00,,SKC,0.00,VWS V13.01,2013-01-24 11:40:00,
2013-01-24 03:46:00,45.9,42.0,30.05,NNE,25,0.0,0.0,86,0.00,,SKC,0.00,VWS V13.01,2013-01-24 11:46:00,
2013-01-24 03:52:00,45.9,42.0,30.05,NNE,25,0.0,0.0,86,0.00,,SKC,0.00,VWS V13.01,2013-01-24 11:52:00,
2013-01-24 03:58:00,45.9,42.6,30.05,NNE,25,0.0,0.0,88,0.00,,SKC,0.00,VWS V13.01,2013-01-24 11:58:00,
2013-01-24 04:04:00,46.0,42.1,30.05,NNE,25,0.0,0.0,86,0.00,,SKC,0.00,VWS V13.01,2013-01-24 12:04:00,
2013-01-24 04:10:00,45.9,42.0,30.05,NNE,25,0.0,0.0,86,0.00,,SKC,0.00,VWS V13.01,2013-01-24 12:10:00,
2013-01-24 04:16:00,45.9,42.0,30.05,NNE,25,0.0,0.0,86,0.00,,SKC,0.00,VWS V13.01,2013-01-24 12:16:00,
2013-01-24 04:22:00,45.9,42.0,30.05,NNE,25,0.0,0.0,86,0.00,,SKC,0.00,VWS V13.01,2013-01-24 12:22:00,
2013-01-24 04:28:00,45.9,42.0,30.05,NNE,25,0.0,0.0,86,0.00,,SKC,0.00,VWS V13.01,2013-01-24 12:28:00,
2013-01-24 04:34:00,46.0,42.8,30.05,NNE,25,0.0,0.0,88,0.00,,SKC,0.00,VWS V13.01,2013-01-24 12:34:00,
2013-01-24 04:40:00,46.2,42.9,30.05,NNE,25,0.0,0.0,88,0.00,,SKC,0.00,VWS V13.01,2013-01-24 12:40:00,
2013-01-24 04:46:00,46.2,43.5,30.05,NNE,25,0.0,0.0,90,0.00,,SKC,0.00,VWS V13.01,2013-01-24 12:46:00,
2013-01-24 04:52:00,46.2,42.9,30.05,NNE,25,0.0,0.0,88,0.00,,SKC,0.00,VWS V13.01,2013-01-24 12:52:00,
2013-01-24 04:59:00,46.4,43.7,30.05,NNE,25,0.0,0.0,90,0.00,,SKC,0.00,VWS V13.01,2013-01-24 12:59:00,
2013-01-24 05:05:00,46.2,42.9,30.05,NNE,25,0.0,0.0,88,0.00,,SKC,0.00,VWS V13.01,2013-01-24 13:05:00,
2013-01-24 05:11:00,46.0,42.8,30.05,NNE,25,0.0,0.0,88,0.00,,SKC,0.00,VWS V13.01,2013-01-24 13:11:00,
2013-01-24 05:17:00,46.0,42.8,30.05,NNE,25,0.0,0.0,88,0.00,,SKC,0.00,VWS V13.01,2013-01-24 13:17:00,
2013-01-24 05:23:00,46.0,42.8,30.05,NNE,25,0.0,0.0,88,0.00,,SKC,0.00,VWS V13.01,2013-01-24 13:23:00,
2013-01-24 05:29:00,46.0,42.8,30.05,NNE,25,0.0,0.0,88,0.00,,SKC,0.00,VWS V13.01,2013-01-24 13:29:00,
2013-01-24 05:35:00,46.0,42.8,30.05,NNE,25,0.0,0.0,88,0.00,,SKC,0.00,VWS V13.01,2013-01-24 13:35:00,
2013-01-24 05:41:00,46.0,42.8,30.05,NNE,25,0.0,0.0,88,0.00,,SKC,0.00,VWS V13.01,2013-01-24 13:41:00,
2013-01-24 05:47:00,46.0,42.8,30.05,NNE,25,0.0,0.0,88,0.00,,SKC,0.00,VWS V13.01,2013-01-24 13:47:00,
2013-01-24 05:53:00,45.9,42.6,30.05,NNE,25,0.0,0.0,88,0.00,,SKC,0.00,VWS V13.01,2013-01-24 13:53:00,
2013-01-24 05:59:00,45.9,42.6,30.05,NNE,25,0.0,0.0,88,0.00,,SKC,0.00,VWS V13.01,2013-01-24 13:59:00,
2013-01-24 06:05:00,46.0,42.8,30.08,NNE,25,0.0,0.0,88,0.00,,SKC,0.00,VWS V13.01,2013-01-24 14:05:00,
2013-01-24 06:11:00,46.4,43.1,30.08,NNE,25,0.0,0.0,88,0.00,,SKC,0.00,VWS V13.01,2013-01-24 14:11:00,
2013-01-24 06:17:00,46.4,43.7,30.08,NNE,25,0.0,0.0,90,0.00,,SKC,0.00,VWS V13.01,2013-01-24 14:17:00,
2013-01-24 06:24:00,46.6,43.9,30.08,NNE,29,0.0,0.0,90,0.00,,SKC,0.00,VWS V13.01,2013-01-24 14:24:00,
2013-01-24 06:30:00,46.6,43.9,30.08,NNE,25,0.0,0.0,90,0.00,,SKC,0.00,VWS V13.01,2013-01-24 14:30:00,
2013-01-24 06:36:00,46.6,43.3,30.08,NNE,25,0.0,0.0,88,0.00,,SKC,0.00,VWS V13.01,2013-01-24 14:36:00,
2013-01-24 06:42:00,46.6,43.3,30.08,NNE,25,0.0,0.0,88,0.00,,SKC,0.00,VWS V13.01,2013-01-24 14:42:00,
2013-01-24 06:48:00,46.6,43.9,30.08,NNE,25,0.0,0.0,90,0.00,,SKC,0.00,VWS V13.01,2013-01-24 14:48:00,
2013-01-24 06:54:00,46.8,43.5,30.08,NNE,25,0.0,0.0,88,0.00,,SKC,0.00,VWS V13.01,2013-01-24 14:54:00,
2013-01-24 07:00:00,46.6,43.3,30.08,NNE,25,0.0,0.0,88,0.00,,SKC,0.00,VWS V13.01,2013-01-24 15:00:00,
2013-01-24 07:06:00,46.4,43.1,30.08,NNE,25,0.0,0.0,88,0.00,,SKC,0.00,VWS V13.01,2013-01-24 15:06:00,
2013-01-24 07:12:00,46.4,43.1,30.08,NNE,25,0.0,0.0,88,0.00,,SKC,0.00,VWS V13.01,2013-01-24 15:12:00,
2013-01-24 07:18:00,46.4,43.1,30.08,NNE,25,0.0,0.0,88,0.00,,SKC,0.00,VWS V13.01,2013-01-24 15:18:00,
2013-01-24 07:24:00,46.4,43.1,30.08,NNE,25,0.0,0.0,88,0.00,,SKC,0.00,VWS V13.01,2013-01-24 15:24:00,
2013-01-24 07:30:00,46.6,43.3,30.08,NNE,25,0.0,0.0,88,0.00,,SKC,0.00,VWS V13.01,2013-01-24 15:30:00,
2013-01-24 07:36:00,46.6,43.3,30.08,NNE,25,0.0,0.0,88,0.00,,SKC,0.00,VWS V13.01,2013-01-24 15:36:00,
2013-01-24 07:43:00,46.6,43.3,30.08,NNE,25,0.0,0.0,88,0.00,,SKC,0.00,VWS V13.01,2013-01-24 15:43:00,
2013-01-24 07:49:00,46.8,44.1,30.08,NNE,25,0.0,0.0,90,0.00,,SKC,0.00,VWS V13.01,2013-01-24 15:49:00,
2013-01-24 07:55:00,46.8,44.1,30.08,NNE,25,0.0,0.0,90,0.00,,SKC,0.00,VWS V13.01,2013-01-24 15:55:00,
2013-01-24 08:01:00,46.9,44.2,30.08,NNE,26,0.0,0.0,90,0.00,,SKC,0.00,VWS V13.01,2013-01-24 16:01:00,
2013-01-24 08:07:00,47.1,44.4,30.08,NNE,25,0.0,0.0,90,0.00,,SKC,0.00,VWS V13.01,2013-01-24 16:07:00,
2013-01-24 08:14:00,47.3,44.6,30.08,North,6,0.0,0.0,90,0.00,,SKC,0.00,VWS V13.01,2013-01-24 16:14:00,
2013-01-24 08:20:00,47.5,44.8,30.11,North,6,0.0,0.0,90,0.00,,SKC,0.00,VWS V13.01,2013-01-24 16:20:00,
2013-01-24 08:26:00,47.7,45.0,30.11,North,6,0.0,0.0,90,0.00,,SKC,0.00,VWS V13.01,2013-01-24 16:26:00,
2013-01-24 08:32:00,47.8,44.5,30.11,North,6,0.0,0.0,88,0.00,,SKC,0.00,VWS V13.01,2013-01-24 16:32:00,
2013-01-24 08:38:00,47.8,44.5,30.11,North,6,0.0,0.0,88,0.00,,SKC,0.00,VWS V13.01,2013-01-24 16:38:00,
2013-01-24 08:44:00,47.8,44.5,30.11,North,6,0.0,0.0,88,0.00,,SKC,0.00,VWS V13.01,2013-01-24 16:44:00,
2013-01-24 08:50:00,48.0,44.7,30.11,North,6,0.0,0.0,88,0.00,,SKC,0.00,VWS V13.01,2013-01-24 16:50:00,
2013-01-24 08:56:00,48.0,44.7,30.11,North,6,0.0,0.0,88,0.00,,SKC,0.00,VWS V13.01,2013-01-24 16:56:00,
2013-01-24 09:03:00,48.2,44.9,30.11,North,6,0.0,0.0,88,0.00,,SKC,0.00,VWS V13.01,2013-01-24 17:03:00,
2013-01-24 09:09:00,48.2,44.9,30.11,North,6,0.0,0.0,88,0.00,,SKC,0.00,VWS V13.01,2013-01-24 17:09:00,
2013-01-24 09:15:00,48.4,45.1,30.11,North,6,0.0,0.0,88,0.00,,SKC,0.00,VWS V13.01,2013-01-24 17:15:00,
2013-01-24 09:21:00,48.4,45.1,30.11,North,6,0.0,0.0,88,0.00,,SKC,0.00,VWS V13.01,2013-01-24 17:21:00,
2013-01-24 09:27:00,48.6,45.2,30.11,North,6,0.0,0.0,88,0.00,,SKC,0.00,VWS V13.01,2013-01-24 17:27:00,
2013-01-24 09:33:00,48.7,45.4,30.11,North,6,0.0,0.0,88,0.00,,SKC,0.00,VWS V13.01,2013-01-24 17:33:00,
2013-01-24 09:39:00,48.7,45.4,30.11,North,6,0.0,0.0,88,0.00,,SKC,0.00,VWS V13.01,2013-01-24 17:39:00,
2013-01-24 09:45:00,49.1,46.4,30.11,North,6,0.0,0.0,90,0.00,,SKC,0.00,VWS V13.01,2013-01-24 17:45:00,
2013-01-24 09:51:00,49.3,45.9,30.11,North,6,0.0,0.0,88,0.00,,SKC,0.00,VWS V13.01,2013-01-24 17:51:00,
2013-01-24 09:57:00,49.5,46.1,30.11,North,6,0.0,0.0,88,0.00,,SKC,0.00,VWS V13.01,2013-01-24 17:57:00,
2013-01-24 10:03:00,49.8,46.5,30.14,North,6,0.0,0.0,88,0.00,,SKC,0.00,VWS V13.01,2013-01-24 18:03:00,
2013-01-24 10:09:00,50.0,46.7,30.14,North,6,0.0,0.0,88,0.00,,SKC,0.00,VWS V13.01,2013-01-24 18:09:00,
2013-01-24 10:15:00,50.2,46.8,30.14,North,6,0.0,0.0,88,0.00,,SKC,0.00,VWS V13.01,2013-01-24 18:15:00,
2013-01-24 10:21:00,50.4,47.0,30.14,North,6,0.0,0.0,88,0.00,,SKC,0.00,VWS V13.01,2013-01-24 18:21:00,
2013-01-24 10:27:00,50.5,47.2,30.14,North,6,0.0,0.0,88,0.00,,SKC,0.00,VWS V13.01,2013-01-24 18:27:00,
2013-01-24 10:34:00,50.9,47.5,30.14,North,6,0.0,0.0,88,0.00,,SKC,0.00,VWS V13.01,2013-01-24 18:34:00,
2013-01-24 10:40:00,51.1,47.7,30.14,North,6,0.0,0.0,88,0.00,,SKC,0.00,VWS V13.01,2013-01-24 18:40:00,
2013-01-24 10:46:00,51.4,48.1,30.14,North,6,0.0,0.0,88,0.00,,SKC,0.00,VWS V13.01,2013-01-24 18:46:00,
2013-01-24 10:52:00,51.6,48.2,30.14,North,6,0.0,0.0,88,0.00,,SKC,0.00,VWS V13.01,2013-01-24 18:52:00,
2013-01-24 10:58:00,52.2,49.4,30.14,North,6,0.0,0.0,90,0.00,,SKC,0.00,VWS V13.01,2013-01-24 18:58:00,
2013-01-24 11:04:00,52.7,49.9,30.14,North,6,0.0,0.0,90,0.00,,SKC,0.00,VWS V13.01,2013-01-24 19:04:00,
2013-01-24 11:10:00,53.1,49.7,30.14,North,6,0.0,0.0,88,0.00,,SKC,0.00,VWS V13.01,2013-01-24 19:10:00,
2013-01-24 11:16:00,53.2,49.8,30.14,North,6,0.0,0.0,88,0.00,,SKC,0.00,VWS V13.01,2013-01-24 19:16:00,
2013-01-24 11:22:00,53.4,50.0,30.14,North,6,0.0,0.0,88,0.00,,SKC,0.00,VWS V13.01,2013-01-24 19:22:00,
2013-01-24 11:28:00,54.0,50.5,30.14,North,6,0.0,0.0,88,0.00,,SKC,0.00,VWS V13.01,2013-01-24 19:28:00,
2013-01-24 11:34:00,54.1,50.7,30.11,North,6,0.0,0.0,88,0.00,,SKC,0.00,VWS V13.01,2013-01-24 19:34:00,
2013-01-24 11:40:00,54.3,50.3,30.11,North,6,0.0,0.0,86,0.00,,SKC,0.00,VWS V13.01,2013-01-24 19:40:00,
2013-01-24 11:46:00,54.5,50.4,30.11,North,6,0.0,0.0,86,0.00,,SKC,0.00,VWS V13.01,2013-01-24 19:46:00,
2013-01-24 11:53:00,54.5,49.8,30.11,North,6,0.0,0.0,84,0.00,,SKC,0.00,VWS V13.01,2013-01-24 19:53:00,
2013-01-24 11:59:00,54.7,50.0,30.11,North,6,0.0,0.0,84,0.00,,SKC,0.00,VWS V13.01,2013-01-24 19:59:00,
2013-01-24 12:05:00,54.9,50.1,30.11,North,6,0.0,0.0,84,0.00,,SKC,0.00,VWS V13.01,2013-01-24 20:05:00,
2013-01-24 12:11:00,55.0,50.3,30.11,North,6,0.0,0.0,84,0.00,,SKC,0.00,VWS V13.01,2013-01-24 20:11:00,
2013-01-24 12:17:00,55.2,50.5,30.11,North,6,0.0,0.0,84,0.00,,SKC,0.00,VWS V13.01,2013-01-24 20:17:00,
2013-01-24 12:23:00,55.4,50.0,30.11,North,6,0.0,0.0,82,0.00,,SKC,0.00,VWS V13.01,2013-01-24 20:23:00,
2013-01-24 12:29:00,55.6,50.2,30.11,North,6,0.0,0.0,82,0.00,,SKC,0.00,VWS V13.01,2013-01-24 20:29:00,
2013-01-24 12:35:00,55.8,50.3,30.11,North,6,0.0,0.0,82,0.00,,SKC,0.00,VWS V13.01,2013-01-24 20:35:00,
2013-01-24 12:41:00,55.9,50.5,30.11,North,6,0.0,0.0,82,0.00,,SKC,0.00,VWS V13.01,2013-01-24 20:41:00,
2013-01-24 12:47:00,55.9,49.8,30.11,North,6,0.0,0.0,80,0.00,,SKC,0.00,VWS V13.01,2013-01-24 20:47:00,
2013-01-24 12:53:00,55.8,49.6,30.11,North,6,0.0,0.0,80,0.00,,SKC,0.00,VWS V13.01,2013-01-24 20:53:00,
2013-01-24 12:59:00,55.9,49.8,30.11,North,6,0.0,0.0,80,0.00,,SKC,0.00,VWS V13.01,2013-01-24 20:59:00,
2013-01-24 13:05:00,55.9,49.8,30.11,North,6,0.0,0.0,80,0.00,,SKC,0.00,VWS V13.01,2013-01-24 21:05:00,
2013-01-24 13:12:00,55.9,49.8,30.11,North,6,0.0,0.0,80,0.00,,SKC,0.00,VWS V13.01,2013-01-24 21:12:00,
2013-01-24 13:18:00,55.8,48.9,30.11,North,6,0.0,0.0,78,0.00,,SKC,0.00,VWS V13.01,2013-01-24 21:18:00,
2013-01-24 13:24:00,55.8,48.9,30.11,North,6,0.0,0.0,78,0.00,,SKC,0.00,VWS V13.01,2013-01-24 21:24:00,
2013-01-24 13:30:00,55.6,48.7,30.11,North,6,0.0,0.0,78,0.00,,SKC,0.00,VWS V13.01,2013-01-24 21:30:00,
2013-01-24 13:36:00,55.4,48.6,30.11,North,6,0.0,0.0,78,0.00,,SKC,0.00,VWS V13.01,2013-01-24 21:36:00,
2013-01-24 13:42:00,55.4,48.6,30.11,North,6,0.0,0.0,78,0.00,,SKC,0.00,VWS V13.01,2013-01-24 21:42:00,
2013-01-24 13:48:00,55.2,48.4,30.11,North,6,0.0,0.0,78,0.00,,SKC,0.00,VWS V13.01,2013-01-24 21:48:00,
2013-01-24 13:54:00,55.0,48.2,30.11,North,6,0.0,0.0,78,0.00,,SKC,0.00,VWS V13.01,2013-01-24 21:54:00,
2013-01-24 14:00:00,55.0,48.2,30.11,North,6,0.0,0.0,78,0.00,,SKC,0.00,VWS V13.01,2013-01-24 22:00:00,
2013-01-24 14:05:00,54.9,48.0,30.11,North,6,0.0,0.0,78,0.00,,SKC,0.00,VWS V13.01,2013-01-24 22:05:00,
2013-01-24 14:11:00,54.9,48.0,30.11,North,6,0.0,0.0,78,0.00,,SKC,0.00,VWS V13.01,2013-01-24 22:11:00,
2013-01-24 14:17:00,54.9,48.0,30.11,North,6,0.0,0.0,78,0.00,,SKC,0.00,VWS V13.01,2013-01-24 22:17:00,
2013-01-24 14:23:00,54.7,47.9,30.11,North,6,0.0,0.0,78,0.00,,SKC,0.00,VWS V13.01,2013-01-24 22:23:00,
2013-01-24 14:29:00,54.7,47.9,30.11,North,6,0.0,0.0,78,0.00,,SKC,0.00,VWS V13.01,2013-01-24 22:29:00,
2013-01-24 14:35:00,54.7,47.9,30.11,North,6,0.0,0.0,78,0.00,,SKC,0.00,VWS V13.01,2013-01-24 22:35:00,
2013-01-24 14:44:00,54.7,47.1,30.11,North,6,0.0,0.0,76,0.00,,SKC,0.00,VWS V13.01,2013-01-24 22:44:00,
2013-01-24 14:50:00,54.5,47.0,30.11,North,6,0.0,0.0,76,0.00,,SKC,0.00,VWS V13.01,2013-01-24 22:50:00,
2013-01-24 14:56:00,54.5,47.0,30.11,North,6,0.0,0.0,76,0.00,,SKC,0.00,VWS V13.01,2013-01-24 22:56:00,
2013-01-24 15:02:00,54.7,47.1,30.11,North,6,0.0,0.0,76,0.00,,SKC,0.00,VWS V13.01,2013-01-24 23:02:00,
2013-01-24 15:08:00,54.9,47.3,30.11,North,6,0.0,0.0,76,0.00,,SKC,0.00,VWS V13.01,2013-01-24 23:08:00,
2013-01-24 15:14:00,54.7,47.1,30.11,North,6,0.0,0.0,76,0.00,,SKC,0.00,VWS V13.01,2013-01-24 23:14:00,
2013-01-24 15:20:00,54.7,47.1,30.11,North,6,0.0,0.0,76,0.00,,SKC,0.00,VWS V13.01,2013-01-24 23:20:00,
2013-01-24 15:26:00,54.5,47.0,30.11,North,6,0.0,0.0,76,0.00,,SKC,0.00,VWS V13.01,2013-01-24 23:26:00,
2013-01-24 15:32:00,54.5,47.7,30.11,North,6,0.0,0.0,78,0.00,,SKC,0.00,VWS V13.01,2013-01-24 23:32:00,
2013-01-24 15:38:00,54.5,47.0,30.11,North,6,0.0,0.0,76,0.00,,SKC,0.00,VWS V13.01,2013-01-24 23:38:00,
2013-01-24 15:45:00,54.7,47.1,30.11,North,7,0.0,0.0,76,0.00,,SKC,0.00,VWS V13.01,2013-01-24 23:45:00,
2013-01-24 15:50:00,54.7,47.1,30.11,North,6,0.0,0.0,76,0.00,,SKC,0.00,VWS V13.01,2013-01-24 23:50:00,
2013-01-24 15:55:00,54.7,47.1,30.11,North,6,0.0,0.0,76,0.00,,SKC,0.00,VWS V13.01,2013-01-24 23:55:00,
2013-01-24 16:01:00,54.5,47.0,30.11,North,6,0.0,0.0,76,0.00,,SKC,0.00,VWS V13.01,2013-01-25 00:01:00,
2013-01-24 16:07:00,54.5,47.0,30.11,North,6,0.0,0.0,76,0.00,,SKC,0.00,VWS V13.01,2013-01-25 00:07:00,
2013-01-24 16:13:00,54.5,47.0,30.11,North,6,0.0,0.0,76,0.00,,SKC,0.00,VWS V13.01,2013-01-25 00:13:00,
2013-01-24 16:19:00,54.3,46.8,30.11,North,6,0.0,0.0,76,0.00,,SKC,0.00,VWS V13.01,2013-01-25 00:19:00,
2013-01-24 16:25:00,54.3,46.8,30.11,North,6,0.0,0.0,76,0.00,,SKC,0.00,VWS V13.01,2013-01-25 00:25:00,
2013-01-24 16:31:00,54.3,46.8,30.11,North,6,0.0,0.0,76,0.00,,SKC,0.00,VWS V13.01,2013-01-25 00:31:00,
2013-01-24 16:37:00,54.1,46.6,30.11,North,6,0.0,0.0,76,0.00,,SKC,0.00,VWS V13.01,2013-01-25 00:37:00,
2013-01-24 16:43:00,54.1,46.6,30.11,North,6,0.0,0.0,76,0.00,,SKC,0.00,VWS V13.01,2013-01-25 00:43:00,
2013-01-24 16:50:00,54.1,46.6,30.11,North,6,0.0,0.0,76,0.00,,SKC,0.00,VWS V13.01,2013-01-25 00:50:00,
2013-01-24 16:56:00,54.0,46.4,30.11,North,6,0.0,0.0,76,0.00,,SKC,0.00,VWS V13.01,2013-01-25 00:56:00,
2013-01-24 17:02:00,53.8,46.3,30.11,North,6,0.0,0.0,76,0.00,,SKC,0.00,VWS V13.01,2013-01-25 01:02:00,
2013-01-24 17:08:00,53.6,46.1,30.11,North,6,0.0,0.0,76,0.00,,SKC,0.00,VWS V13.01,2013-01-25 01:08:00,
2013-01-24 17:14:00,53.4,45.9,30.11,North,6,0.0,0.0,76,0.00,,SKC,0.00,VWS V13.01,2013-01-25 01:14:00,
2013-01-24 17:20:00,53.2,45.7,30.11,North,6,0.0,0.0,76,0.00,,SKC,0.00,VWS V13.01,2013-01-25 01:20:00,
2013-01-24 17:26:00,53.1,45.6,30.11,North,6,0.0,0.0,76,0.00,,SKC,0.00,VWS V13.01,2013-01-25 01:26:00,
2013-01-24 17:32:00,52.9,45.4,30.11,North,6,0.0,0.0,76,0.00,,SKC,0.00,VWS V13.01,2013-01-25 01:32:00,
2013-01-24 17:38:00,52.5,45.8,30.11,North,6,0.0,0.0,78,0.00,,SKC,0.00,VWS V13.01,2013-01-25 01:38:00,
2013-01-24 17:44:00,52.3,45.6,30.11,North,5,0.0,0.0,78,0.00,,SKC,0.00,VWS V13.01,2013-01-25 01:44:00,
2013-01-24 17:50:00,52.2,45.4,30.11,North,6,0.0,0.0,78,0.00,,SKC,0.00,VWS V13.01,2013-01-25 01:50:00,
2013-01-24 17:56:00,52.0,45.2,30.11,North,6,0.0,0.0,78,0.00,,SKC,0.00,VWS V13.01,2013-01-25 01:56:00,
2013-01-24 18:03:00,52.0,45.2,30.11,North,6,0.0,0.0,78,0.00,,SKC,0.00,VWS V13.01,2013-01-25 02:03:00,
2013-01-24 18:09:00,51.6,44.9,30.11,North,6,0.0,0.0,78,0.04,,SKC,0.04,VWS V13.01,2013-01-25 02:09:00,
2013-01-24 18:15:00,51.4,44.7,30.11,North,6,0.0,0.0,78,0.04,,SKC,0.04,VWS V13.01,2013-01-25 02:15:00,
2013-01-24 18:21:00,51.4,44.7,30.11,North,6,0.0,0.0,78,0.04,,SKC,0.04,VWS V13.01,2013-01-25 02:21:00,
2013-01-24 18:27:00,51.3,44.5,30.11,North,6,0.0,0.0,78,0.04,,SKC,0.04,VWS V13.01,2013-01-25 02:27:00,
2013-01-24 18:33:00,51.3,44.5,30.11,North,6,0.0,0.0,78,0.04,,SKC,0.04,VWS V13.01,2013-01-25 02:33:00,
2013-01-24 18:39:00,50.9,44.2,30.11,North,6,0.0,0.0,78,0.04,,SKC,0.04,VWS V13.01,2013-01-25 02:39:00,
2013-01-24 18:45:00,50.9,44.9,30.11,North,6,0.0,0.0,80,0.04,,SKC,0.04,VWS V13.01,2013-01-25 02:45:00,
2013-01-24 18:52:00,50.7,44.7,30.11,North,6,0.0,0.0,80,0.04,,SKC,0.04,VWS V13.01,2013-01-25 02:52:00,
2013-01-24 18:58:00,50.5,44.5,30.11,North,6,0.0,0.0,80,0.04,,SKC,0.04,VWS V13.01,2013-01-25 02:58:00,
2013-01-24 19:04:00,50.5,44.5,30.11,North,6,0.0,0.0,80,0.04,,SKC,0.04,VWS V13.01,2013-01-25 03:04:00,
2013-01-24 19:10:00,50.4,44.4,30.11,North,6,0.0,0.0,80,0.04,,SKC,0.04,VWS V13.01,2013-01-25 03:10:00,
2013-01-24 19:16:00,50.2,44.2,30.11,North,6,0.0,0.0,80,0.00,,SKC,0.04,VWS V13.01,2013-01-25 03:16:00,
2013-01-24 19:22:00,50.2,44.2,30.11,North,6,0.0,0.0,80,0.00,,SKC,0.04,VWS V13.01,2013-01-25 03:22:00,
2013-01-24 19:28:00,50.2,44.2,30.11,North,6,0.0,0.0,80,0.00,,SKC,0.04,VWS V13.01,2013-01-25 03:28:00,
2013-01-24 19:34:00,50.2,44.2,30.11,North,6,0.0,0.0,80,0.00,,SKC,0.04,VWS V13.01,2013-01-25 03:34:00,
2013-01-24 19:40:00,50.0,44.0,30.11,North,6,0.0,0.0,80,0.00,,SKC,0.04,VWS V13.01,2013-01-25 03:40:00,
2013-01-24 19:45:00,49.8,43.8,30.11,North,6,0.0,0.0,80,0.00,,SKC,0.04,VWS V13.01,2013-01-25 03:45:00,
2013-01-24 19:51:00,49.8,43.8,30.11,North,6,0.0,0.0,80,0.00,,SKC,0.04,VWS V13.01,2013-01-25 03:51:00,
2013-01-24 19:58:00,49.6,43.7,30.11,North,6,0.0,0.0,80,0.00,,SKC,0.04,VWS V13.01,2013-01-25 03:58:00,
2013-01-24 20:04:00,49.6,43.7,30.11,North,6,0.0,0.0,80,0.00,,SKC,0.04,VWS V13.01,2013-01-25 04:04:00,
2013-01-24 20:10:00,49.6,43.7,30.11,North,6,0.0,0.0,80,0.00,,SKC,0.04,VWS V13.01,2013-01-25 04:10:00,
2013-01-24 20:16:00,49.5,43.5,30.11,North,6,0.0,0.0,80,0.00,,SKC,0.04,VWS V13.01,2013-01-25 04:16:00,
2013-01-24 20:22:00,49.5,43.5,30.11,North,6,0.0,0.0,80,0.00,,SKC,0.04,VWS V13.01,2013-01-25 04:22:00,
2013-01-24 20:28:00,49.5,43.5,30.11,North,6,0.0,0.0,80,0.00,,SKC,0.04,VWS V13.01,2013-01-25 04:28:00,
2013-01-24 20:34:00,49.5,43.5,30.14,North,6,0.0,0.0,80,0.00,,SKC,0.04,VWS V13.01,2013-01-25 04:34:00,
2013-01-24 20:40:00,49.5,44.2,30.14,North,6,0.0,0.0,82,0.00,,SKC,0.04,VWS V13.01,2013-01-25 04:40:00,
2013-01-24 20:46:00,49.5,44.2,30.14,North,6,0.0,0.0,82,0.00,,SKC,0.04,VWS V13.01,2013-01-25 04:46:00,
2013-01-24 20:53:00,49.5,44.2,30.14,North,6,0.0,0.0,82,0.00,,SKC,0.04,VWS V13.01,2013-01-25 04:53:00,
2013-01-24 20:59:00,49.5,44.2,30.14,North,6,0.0,0.0,82,0.00,,SKC,0.04,VWS V13.01,2013-01-25 04:59:00,
2013-01-24 21:00:00,49.5,44.2,30.14,North,6,0.0,0.0,82,0.00,,SKC,0.04,VWS V13.01,2013-01-25 05:00:00,
2013-01-24 21:03:00,49.5,44.2,30.14,North,6,0.0,0.0,82,0.00,,SKC,0.04,VWS V13.01,2013-01-25 05:03:00,
2013-01-24 21:07:00,49.5,44.2,30.14,North,6,0.0,0.0,82,0.00,,SKC,0.04,VWS V13.01,2013-01-25 05:07:00,
2013-01-24 21:11:00,49.5,44.2,30.14,North,6,0.0,0.0,82,0.00,,SKC,0.04,VWS V13.01,2013-01-25 05:11:00,
2013-01-24 21:17:00,49.5,44.2,30.14,North,6,0.0,0.0,82,0.00,,SKC,0.04,VWS V13.01,2013-01-25 05:17:00,
2013-01-24 21:23:00,49.5,44.2,30.14,North,6,0.0,0.0,82,0.00,,SKC,0.04,VWS V13.01,2013-01-25 05:23:00,
2013-01-24 21:29:00,49.5,44.2,30.14,North,6,0.0,0.0,82,0.00,,SKC,0.04,VWS V13.01,2013-01-25 05:29:00,
2013-01-24 21:35:00,49.5,44.2,30.14,North,6,0.0,0.0,82,0.00,,SKC,0.04,VWS V13.01,2013-01-25 05:35:00,
2013-01-24 21:41:00,49.5,44.2,30.14,North,6,0.0,0.0,82,0.00,,SKC,0.04,VWS V13.01,2013-01-25 05:41:00,
2013-01-24 21:48:00,49.5,44.2,30.14,North,6,0.0,0.0,82,0.00,,SKC,0.04,VWS V13.01,2013-01-25 05:48:00,
2013-01-24 21:54:00,49.5,44.2,30.14,North,6,0.0,0.0,82,0.00,,SKC,0.04,VWS V13.01,2013-01-25 05:54:00,
2013-01-24 22:00:00,49.5,44.2,30.14,North,6,0.0,0.0,82,0.00,,SKC,0.04,VWS V13.01,2013-01-25 06:00:00,
2013-01-24 22:06:00,49.5,44.2,30.14,North,6,0.0,0.0,82,0.00,,SKC,0.04,VWS V13.01,2013-01-25 06:06:00,
2013-01-24 22:12:00,49.1,43.8,30.14,North,6,0.0,0.0,82,0.00,,SKC,0.04,VWS V13.01,2013-01-25 06:12:00,
2013-01-24 22:20:00,49.1,43.8,30.14,North,6,0.0,0.0,82,0.00,,SKC,0.04,VWS V13.01,2013-01-25 06:20:00,
2013-01-24 22:26:00,49.1,43.8,30.14,North,6,0.0,0.0,82,0.00,,SKC,0.04,VWS V13.01,2013-01-25 06:26:00,
2013-01-24 22:32:00,49.1,43.8,30.14,North,6,0.0,0.0,82,0.00,,SKC,0.04,VWS V13.01,2013-01-25 06:32:00,
2013-01-24 22:39:00,49.1,43.8,30.14,North,6,0.0,0.0,82,0.00,,SKC,0.04,VWS V13.01,2013-01-25 06:39:00,
2013-01-24 22:45:00,49.1,43.8,30.14,North,6,0.0,0.0,82,0.00,,SKC,0.04,VWS V13.01,2013-01-25 06:45:00,
2013-01-24 22:51:00,49.1,43.8,30.14,North,6,0.0,0.0,82,0.00,,SKC,0.04,VWS V13.01,2013-01-25 06:51:00,
2013-01-24 22:57:00,49.1,43.8,30.14,North,6,0.0,0.0,82,0.00,,SKC,0.04,VWS V13.01,2013-01-25 06:57:00,
2013-01-24 23:03:00,49.1,43.8,30.14,North,6,0.0,0.0,82,0.00,,SKC,0.04,VWS V13.01,2013-01-25 07:03:00,
2013-01-24 23:09:00,49.1,43.8,30.14,North,6,0.0,0.0,82,0.00,,SKC,0.04,VWS V13.01,2013-01-25 07:09:00,
2013-01-24 23:15:00,49.1,43.8,30.14,North,8,0.0,0.0,82,0.00,,SKC,0.04,VWS V13.01,2013-01-25 07:15:00,
2013-01-24 23:21:00,49.1,43.8,30.14,North,6,0.0,0.0,82,0.00,,SKC,0.04,VWS V13.01,2013-01-25 07:21:00,
2013-01-24 23:27:00,49.1,43.8,30.14,North,6,0.0,0.0,82,0.00,,SKC,0.04,VWS V13.01,2013-01-25 07:27:00,
2013-01-24 23:33:00,49.1,43.8,30.14,North,6,0.0,0.0,82,0.00,,SKC,0.04,VWS V13.01,2013-01-25 07:33:00,
2013-01-24 23:39:00,49.1,43.8,30.14,North,6,0.0,0.0,82,0.00,,SKC,0.04,VWS V13.01,2013-01-25 07:39:00,
2013-01-24 23:45:00,49.1,43.8,30.14,North,6,0.0,0.0,82,0.00,,SKC,0.04,VWS V13.01,2013-01-25 07:45:00,
2013-01-24 23:52:00,49.1,43.8,30.14,North,6,0.0,0.0,82,0.00,,SKC,0.04,VWS V13.01,2013-01-25 07:52:00,
2013-01-24 23:58:00,49.1,44.5,30.14,North,5,0.0,0.0,84,0.00,,SKC,0.04,VWS V13.01,2013-01-25 07:58:00,